Regional Weather Roundup
Issued by NWS

Home | Current Version | Previous Version | Text Only | Print | Product List | Glossary Off
Versions: 1 2 3 4 5 6 7 8 9 10 11 12 13 14 15 16 17 18 19 20 21 22 23 24 25 26 27 28 29 30 31 32 33 34 35 36 37 38 39 40 41 42 43 44 45 46 47 48 49 50

000
ASUS43 KDMX 171501
RWRIA

WEATHER ROUNDUP FOR IOWA
NATIONAL WEATHER SERVICE DES MOINES IA
900 AM CST TUE JAN 17 2017

NOTE: "FAIR" INDICATES FEW OR NO CLOUDS BELOW 12,000 FEET WITH NO
SIGNIFICANT WEATHER AND/OR OBSTRUCTIONS TO VISIBILITY.

* - THESE STATIONS ARE NOT NWS STATIONS...THUS NOT UNDER NWS
QUALITY CONTROL.  THEY ALSO DO NOT REPORT WEATHER SUCH
AS PRECIPITATION OR FOG.

IAZ001>003-012>014-020>022-031>034-043>046-171600-
   NORTHWEST IOWA

CITY           SKY/WX    TMP DP  RH WIND       PRES   REMARKS
CARROLL *      CLOUDY    32  32 100 W10       30.01R FOG     WCI  24
CHEROKEE *     CLOUDY    28  28 100 CALM      30.03R
DENISON *      CLOUDY    27  27 100 W8        30.02R FOG     WCI  18
LE MARS *      CLOUDY    19  18  93 NW7       30.07R WCI  10
ORANGE CITY *  CLOUDY    19  18  93 NW8       30.03R WCI   9
SHELDON *      FOG       23  23 100 W8G14     30.01R VSB 3/4 WCI  14
SIOUX CITY     CLOUDY    20  15  81 NW13      30.07R WCI   7
SPENCER        CLOUDY    30  28  92 NW10      30.00R FOG     WCI  21
STORM LAKE *   CLOUDY    28  28 100 NW13      30.00R FOG     WCI  18
$$

IAZ055>058-069>071-079>083-090>094-171600-
   SOUTHWEST IOWA

CITY           SKY/WX    TMP DP  RH WIND       PRES   REMARKS
ATLANTIC *     CLOUDY    30  30 100 NW10      30.04R FOG     WCI  21
AUDUBON *      CLOUDY    30  28  93 W3        30.02R FOG
CLARINDA *     CLOUDY    32  32 100 NW13      30.07R FOG     WCI  22
COUNCIL BLFS * CLOUDY    27  27 100 NW12      30.06R FOG     WCI  16
CRESTON *      FOG       32  32 100 NW13      30.02R VSB 1/4 WCI  22
HARLAN  *      CLOUDY    28  28 100 W9        30.07R FOG     WCI  20
LAMONI         CLOUDY    34  33  96 W9        30.01R FOG     WCI  27
RED OAK *      CLOUDY    30  30 100 W10       30.05S FOG     WCI  21
SHENANDOAH *   CLOUDY    30  30 100 W9        30.07R FOG     WCI  22
$$

IAZ047>049-059>061-072>074-084-171600-
   CENTRAL IOWA

CITY           SKY/WX    TMP DP  RH WIND       PRES   REMARKS
AMES           FOG       33  33 100 NW9       29.98R VSB 3/4 WCI  25
ANKENY *       FOG       34  32  93 W9        30.00R VSB 1   WCI  26
BOONE *        FOG       32  32 100 NW10      29.96S VSB 1/2 WCI  24
CHARITON *     CLOUDY    34  32  93 W10       29.99R FOG     WCI  26
DES MOINES     DRZL/FOG  34  33  96 NW10      29.99R VSB 1   WCI  26
GRINNELL*      CLOUDY    32  32  99 W9        29.95R FOG     WCI  24
KNOXVILLE *    FOG       34  32  93 W10       29.97R VSB 3/4 WCI  26
MARSHALLTOWN   FOG       32  32 100 W10       29.94R VSB 3/4 WCI  24
NEWTON *       FOG       32  32 100 W10       29.96R VSB 1/2 WCI  24
PELLA *        FOG       33  33  99 W8        29.99R VSB 1   WCI  26
PERRY *        CLOUDY    33  33 100 NW9       29.99S FOG     WCI  25
$$

IAZ004>006-015-016-023>025-035-036-171600-
   NORTH CENTRAL IOWA

CITY           SKY/WX    TMP DP  RH WIND       PRES   REMARKS
ALGONA *       FOG       30  30 100 NW13      29.97R VSB 1/4 WCI  20
CLARION *      FOG       32  32 100 NW13      29.96R VSB 1/4 WCI  22
ESTHERVILLE    FOG       27  27 100 NW10      29.98R VSB 1/2 WCI  17
FORT DODGE *   CLOUDY    30  28  93 CALM      29.99R
MASON CITY     FOG       30  29  96 NW15      29.95R VSB 1/4 WCI  19
FOREST CITY *  FOG       32  32 100 NW12G18   29.94R VSB 1/4 WCI  23
WEBSTER CITY * FOG       32  32 100 NW13      29.95R VSB 1/4 WCI  22
IOWA FALLS *   FOG       32  32  99 NW8       29.95R VSB 1   WCI  25
$$

IAZ007>011-017>019-026>030-037>042-050>054-066-171600-
   NORTHEAST IOWA

CITY           SKY/WX    TMP DP  RH WIND       PRES   REMARKS
CEDAR RAPIDS   CLOUDY    32  32 100 W10       29.92R FOG     WCI  24
CHARLES CITY * CLOUDY    32  32 100 NW13      29.91R FOG     WCI  22
CLINTON *      FOG       34  33  96 W10       29.91R VSB 3/4 WCI  26
DECORAH *      CLOUDY    32  32 100 NW8       29.87R FOG     WCI  25
DUBUQUE        FOG       32  32 100 W7        29.88R VSB 3/4 WCI  26
MONTICELLO *   CLOUDY    34  34 100 NW6       29.90R FOG     WCI  29
OELWEIN *      CLOUDY    34  32  93 NW8       29.91R FOG     WCI  27
WATERLOO       CLOUDY    33  31  92 W8        29.93R FOG     WCI  26
$$

IAZ064-065-067-068-078-171600-
   EAST CENTRAL IOWA

CITY           SKY/WX    TMP DP  RH WIND       PRES   REMARKS
DAVENPORT      CLOUDY    33  33 100 W13       29.92R FOG     WCI  24
IOWA CITY      CLOUDY    35  33  92 W8        29.95R FOG     WCI  29
MUSCATINE *    CLOUDY    36  34  93 W9        29.95R FOG     WCI  29
QUAD CITIES    CLOUDY    35  33  92 W12       29.92R FOG     WCI  27
$$

IAZ062-063-075>077-085>089-095>099-171600-
   SOUTHEAST IOWA

CITY           SKY/WX    TMP DP  RH WIND       PRES   REMARKS
BURLINGTON     CLOUDY    35  35 100 W9        29.94R WCI  28
FAIRFIELD *    CLOUDY    34  34 100 W9G15     29.97R FOG     WCI  26
FORT MADISON * CLOUDY    36  36 100 W9        29.97R FOG     WCI  29
KEOKUK *       CLOUDY    36  36 100 W10       29.97R FOG     WCI  28
OSKALOOSA *    CLOUDY    33  32  99 W13       29.97R FOG     WCI  23
OTTUMWA        CLOUDY    34  33  96 W12       29.97R FOG     WCI  25
WASHINGTON *   CLOUDY    34  34 100 W9        29.96R FOG     WCI  26
$$

ABBREVIATIONS USED IN REMARKS
   TC - TEMPERATURES IN CELSIUS
  WCI - WIND CHILL INDEX
   HX - HEAT INDEX
  VSB - VISIBILITY
$$





USA.gov is the U.S. government's official web portal to all federal, state and local government web resources and services.